TimeEDT,TemperatureF,Dew PointF,Humidity,Sea Level PressureIn,VisibilityMPH,Wind Direction,Wind SpeedMPH,Gust SpeedMPH,PrecipitationIn,Events,Conditions,WindDirDegrees,DateUTC
12:54 AM,66.0,64.0,93,30.06,8.0,NNE,9.2,-,0.00,Rain,Light Rain,30,2013-07-09 04:54:00
1:54 AM,66.0,64.0,93,30.06,9.0,NE,4.6,-,0.01,,Overcast,40,2013-07-09 05:54:00
2:54 AM,66.0,63.0,90,30.05,2.0,NNE,4.6,-,N/A,,Overcast,30,2013-07-09 06:54:00
3:11 AM,66.2,64.4,94,30.05,2.0,NNE,8.1,-,N/A,,Overcast,30,2013-07-09 07:11:00
3:54 AM,66.0,63.0,90,30.06,2.0,NE,6.9,-,N/A,,Overcast,40,2013-07-09 07:54:00
4:54 AM,64.9,63.0,93,30.07,2.0,NE,4.6,-,N/A,,Overcast,50,2013-07-09 08:54:00
5:25 AM,64.4,64.4,100,30.07,2.0,NNE,4.6,-,N/A,,Overcast,20,2013-07-09 09:25:00
5:47 AM,66.2,64.4,94,30.07,1.2,NE,4.6,-,N/A,,Overcast,40,2013-07-09 09:47:00
5:54 AM,66.0,64.0,93,30.08,0.5,NE,4.6,-,N/A,,Overcast,40,2013-07-09 09:54:00
6:17 AM,64.4,64.4,100,30.08,0.5,NE,4.6,-,0.00,,Overcast,50,2013-07-09 10:17:00
6:39 AM,66.2,64.4,94,30.09,0.5,Calm,Calm,-,0.00,,Overcast,0,2013-07-09 10:39:00
6:54 AM,66.0,64.0,93,30.09,0.5,NNE,3.5,-,0.00,,Overcast,20,2013-07-09 10:54:00
7:33 AM,66.2,64.4,94,30.09,2.0,NE,3.5,-,N/A,,Overcast,40,2013-07-09 11:33:00
7:54 AM,66.9,64.0,90,30.10,2.0,NNE,4.6,-,N/A,,Overcast,20,2013-07-09 11:54:00
8:54 AM,68.0,64.0,87,30.11,2.0,North,4.6,-,N/A,,Overcast,360,2013-07-09 12:54:00
9:54 AM,69.1,64.0,84,30.10,2.0,Calm,Calm,-,N/A,,Overcast,0,2013-07-09 13:54:00
10:05 AM,69.8,64.4,83,30.10,8.0,ENE,5.8,-,N/A,,Overcast,60,2013-07-09 14:05:00
10:40 AM,69.8,64.4,83,30.10,8.0,ENE,6.9,-,N/A,,Overcast,60,2013-07-09 14:40:00
10:54 AM,70.0,64.0,81,30.10,9.0,ENE,6.9,-,N/A,,Overcast,70,2013-07-09 14:54:00
11:54 AM,70.0,64.0,81,30.10,10.0,East,9.2,-,N/A,,Overcast,80,2013-07-09 15:54:00
12:54 PM,70.0,64.0,81,30.11,9.0,East,10.4,-,N/A,,Overcast,80,2013-07-09 16:54:00
1:32 PM,71.6,64.4,78,30.10,10.0,East,10.4,-,N/A,,Overcast,80,2013-07-09 17:32:00
1:54 PM,69.1,64.0,84,30.10,10.0,East,9.2,-,N/A,,Overcast,80,2013-07-09 17:54:00
2:13 PM,69.8,64.4,83,30.10,10.0,East,9.2,-,N/A,,Overcast,90,2013-07-09 18:13:00
2:54 PM,70.0,64.0,81,30.09,10.0,East,9.2,-,N/A,,Overcast,100,2013-07-09 18:54:00
3:54 PM,68.0,63.0,84,30.09,9.0,SE,8.1,-,N/A,,Overcast,140,2013-07-09 19:54:00
4:54 PM,69.1,64.0,84,30.09,9.0,ENE,5.8,-,N/A,,Overcast,70,2013-07-09 20:54:00
5:54 PM,68.0,63.0,84,30.07,9.0,East,5.8,-,N/A,,Overcast,80,2013-07-09 21:54:00
6:54 PM,68.0,63.0,84,30.07,10.0,East,5.8,-,N/A,,Overcast,80,2013-07-09 22:54:00
7:54 PM,66.9,63.0,87,30.07,10.0,East,5.8,-,N/A,,Overcast,100,2013-07-09 23:54:00
8:54 PM,66.9,63.0,87,30.08,10.0,East,4.6,-,N/A,,Overcast,90,2013-07-10 00:54:00
9:54 PM,66.9,63.0,87,30.09,10.0,ESE,6.9,-,N/A,,Overcast,110,2013-07-10 01:54:00
10:54 PM,66.9,64.0,90,30.08,10.0,ENE,4.6,-,N/A,,Overcast,60,2013-07-10 02:54:00
11:54 PM,66.9,64.0,90,30.08,10.0,East,5.8,-,N/A,,Overcast,100,2013-07-10 03:54:00